When you browse on this site, cookies collect data to enhance your experience and personalize the content and advertising you see.
Visit our Privacy Policy to learn more. By continuing to use the site, you agree to this use of cookies and data.
  • In Hungary
  • List of Countries
  • For 7 days
  • Water Temperature
  • Satellite Maps
  • Weather Map
  • News
  • Weather Widgets
  • user-avatar
    Login

    Hourly Weather Senaki

    Today, 20 January, Sunday

    Time Temperature Precipitation Wind Pressure Humidity
    00:00 +6°C° 0 mm 1 mps 766 mmHg 54%
    01:00 +5°C° 0 mm 2 mps 766 mmHg 53%
    02:00 +4°C° 0 mm 2 mps 766 mmHg 53%
    03:00 +5°C° 0 mm 2 mps 766 mmHg 46%
    04:00 +5°C° 0 mm 2 mps 766 mmHg 47%
    05:00 +4°C° 0 mm 2 mps 766 mmHg 49%
    06:00 +4°C° 0 mm 2 mps 766 mmHg 50%
    07:00 +4°C° 0 mm 2 mps 766 mmHg 51%
    08:00 +5°C° 0 mm 2 mps 766 mmHg 52%
    09:00 +5°C° 0 mm 2 mps 766 mmHg 54%
    10:00 +6°C° 0 mm 2 mps 766 mmHg 51%
    11:00 +8°C° 0 mm 2 mps 766 mmHg 47%
    12:00 +9°C° 0 mm 2 mps 765 mmHg 44%
    13:00 +9°C° 0 mm 2 mps 765 mmHg 46%
    14:00 +9°C° 0 mm 2 mps 765 mmHg 47%
    15:00 +10°C° 0 mm 2 mps 765 mmHg 48%
    16:00 +9°C° 0 mm 2 mps 765 mmHg 53%
    17:00 +8°C° 0 mm 2 mps 766 mmHg 58%
    18:00 +7°C° 0 mm 2 mps 766 mmHg 63%
    19:00 +6°C° 0 mm 2 mps 766 mmHg 64%
    20:00 +6°C° 0 mm 2 mps 766 mmHg 64%
    21:00 +6°C° 0 mm 2 mps 766 mmHg 65%
    22:00 +4°C° 0 mm 3 mps 766 mmHg 63%
    23:00 +4°C° 0 mm 3 mps 766 mmHg 62%

    Tomorrow, 21 January, Monday

    Time Temperature Precipitation Wind Pressure Humidity
    00:00 +4°C° 0 mm 3 mps 766 mmHg 60%
    01:00 +4°C° 0 mm 3 mps 766 mmHg 59%
    02:00 +4°C° 0 mm 3 mps 766 mmHg 57%
    03:00 +4°C° 0 mm 3 mps 766 mmHg 56%
    04:00 +4°C° 0 mm 3 mps 765 mmHg 55%
    05:00 +4°C° 0 mm 3 mps 765 mmHg 54%
    06:00 +4°C° 0 mm 3 mps 765 mmHg 54%
    07:00 +4°C° 0 mm 3 mps 765 mmHg 52%
    08:00 +5°C° 0 mm 4 mps 764 mmHg 51%
    09:00 +6°C° 0 mm 4 mps 764 mmHg 49%
    10:00 +7°C° 0 mm 4 mps 763 mmHg 45%
    11:00 +10°C° 0 mm 4 mps 763 mmHg 41%
    12:00 +12°C° 0 mm 5 mps 762 mmHg 37%
    13:00 +12°C° 0 mm 4 mps 762 mmHg 38%
    14:00 +12°C° 0 mm 4 mps 761 mmHg 38%
    15:00 +12°C° 0 mm 3 mps 761 mmHg 39%
    16:00 +11°C° 0 mm 3 mps 761 mmHg 43%
    17:00 +10°C° 0 mm 3 mps 762 mmHg 47%
    18:00 +9°C° 0 mm 3 mps 762 mmHg 52%
    19:00 +8°C° 0 mm 3 mps 762 mmHg 53%
    20:00 +8°C° 0 mm 3 mps 763 mmHg 54%
    21:00 +7°C° 0 mm 2 mps 763 mmHg 56%
    22:00 +7°C° 0 mm 2 mps 763 mmHg 55%
    23:00 +7°C° 0 mm 2 mps 763 mmHg 55%

    Day after tomorrow, 22 January, Tuesday

    Time Temperature Precipitation Wind Pressure Humidity
    00:00 +6°C° 0 mm 2 mps 763 mmHg 55%
    01:00 +6°C° 0 mm 2 mps 763 mmHg 54%
    02:00 +6°C° 0 mm 2 mps 763 mmHg 54%
    03:00 +6°C° 0 mm 2 mps 763 mmHg 54%
    04:00 +6°C° 0 mm 2 mps 763 mmHg 54%
    05:00 +5°C° 0 mm 2 mps 763 mmHg 55%
    06:00 +6°C° 0 mm 1 mps 763 mmHg 55%
    07:00 +7°C° 0.2 mm 1 mps 763 mmHg 57%
    08:00 +7°C° 0.2 mm 1 mps 763 mmHg 59%
    09:00 +7°C° 0.2 mm 1 mps 763 mmHg 61%
    10:00 +7°C° 0.4 mm 1 mps 763 mmHg 61%
    11:00 +8°C° 0.4 mm 1 mps 763 mmHg 62%
    12:00 +8°C° 0.4 mm 1 mps 762 mmHg 63%
    13:00 +8°C° 0.7 mm 1 mps 762 mmHg 66%
    14:00 +8°C° 0.7 mm 1 mps 762 mmHg 70%
    15:00 +8°C° 0.7 mm 1 mps 762 mmHg 74%
    16:00 +7°C° 0.7 mm 1 mps 762 mmHg 78%
    17:00 +7°C° 0.7 mm 1 mps 763 mmHg 81%
    18:00 +7°C° 0.7 mm 1 mps 764 mmHg 84%
    19:00 +7°C° 0.2 mm 1 mps 764 mmHg 85%
    20:00 +7°C° 0.2 mm 1 mps 764 mmHg 85%
    21:00 +7°C° 0.2 mm 1 mps 764 mmHg 85%
    22:00 +7°C° 0 mm 1 mps 764 mmHg 84%
    23:00 +6°C° 0 mm 1 mps 764 mmHg 83%

    23 January, Wednesday

    Time Temperature Precipitation Wind Pressure Humidity
    00:00 +6°C° 0 mm 1 mps 764 mmHg 82%
    01:00 +5°C° 0 mm 2 mps 764 mmHg 80%
    02:00 +5°C° 0 mm 2 mps 764 mmHg 78%
    03:00 +4°C° 0 mm 2 mps 764 mmHg 76%
    04:00 +4°C° 0 mm 2 mps 763 mmHg 74%
    05:00 +4°C° 0 mm 2 mps 763 mmHg 71%
    06:00 +4°C° 0 mm 2 mps 763 mmHg 69%
    07:00 +5°C° 0 mm 2 mps 763 mmHg 67%
    08:00 +4°C° 0 mm 3 mps 763 mmHg 64%
    09:00 +5°C° 0 mm 3 mps 763 mmHg 61%
    10:00 +7°C° 0 mm 3 mps 763 mmHg 57%
    11:00 +9°C° 0 mm 3 mps 762 mmHg 53%
    12:00 +10°C° 0 mm 4 mps 762 mmHg 49%
    13:00 +11°C° 0 mm 4 mps 762 mmHg 49%
    14:00 +11°C° 0 mm 3 mps 761 mmHg 49%
    15:00 +11°C° 0 mm 3 mps 761 mmHg 48%
    16:00 +10°C° 0 mm 3 mps 762 mmHg 53%
    17:00 +9°C° 0 mm 3 mps 762 mmHg 57%
    18:00 +8°C° 0 mm 3 mps 763 mmHg 61%
    19:00 +8°C° 0 mm 3 mps 763 mmHg 60%
    20:00 +6°C° 0 mm 4 mps 764 mmHg 59%
    21:00 +6°C° 0 mm 4 mps 764 mmHg 57%
    22:00 +6°C° 0 mm 4 mps 764 mmHg 56%
    23:00 +6°C° 0 mm 4 mps 764 mmHg 54%

    24 January, Thursday

    Time Temperature Precipitation Wind Pressure Humidity
    00:00 +5°C° 0 mm 5 mps 764 mmHg 53%
    01:00 +5°C° 0 mm 5 mps 764 mmHg 52%
    02:00 +5°C° 0 mm 5 mps 764 mmHg 52%
    03:00 +5°C° 0 mm 5 mps 764 mmHg 51%
    04:00 +5°C° 0 mm 5 mps 764 mmHg 51%
    05:00 +5°C° 0 mm 5 mps 764 mmHg 51%
    06:00 +5°C° 0 mm 5 mps 764 mmHg 50%
    07:00 +5°C° 0 mm 5 mps 764 mmHg 49%
    08:00 +6°C° 0 mm 5 mps 764 mmHg 48%
    09:00 +6°C° 0 mm 5 mps 764 mmHg 47%
    10:00 +8°C° 0 mm 5 mps 763 mmHg 44%
    11:00 +10°C° 0 mm 6 mps 762 mmHg 41%
    12:00 +11°C° 0 mm 6 mps 761 mmHg 39%
    13:00 +13°C° 0 mm 6 mps 761 mmHg 38%
    14:00 +13°C° 0 mm 6 mps 760 mmHg 38%
    15:00 +14°C° 0 mm 6 mps 760 mmHg 38%
    16:00 +13°C° 0 mm 6 mps 760 mmHg 40%
    17:00 +11°C° 0 mm 6 mps 760 mmHg 42%
    18:00 +10°C° 0 mm 6 mps 760 mmHg 44%
    19:00 +9°C° 0 mm 6 mps 760 mmHg 43%
    20:00 +9°C° 0 mm 6 mps 760 mmHg 41%
    21:00 +9°C° 0 mm 6 mps 760 mmHg 40%
    22:00 +9°C° 0 mm 6 mps 760 mmHg 39%
    23:00 +9°C° 0 mm 6 mps 759 mmHg 39%

    25 January, Friday

    Time Temperature Precipitation Wind Pressure Humidity
    00:00 +9°C° 0 mm 6 mps 759 mmHg 38%
    01:00 +8°C° 0 mm 6 mps 759 mmHg 39%
    02:00 +8°C° 0 mm 6 mps 759 mmHg 39%
    03:00 +8°C° 0 mm 6 mps 759 mmHg 40%
    04:00 +8°C° 0 mm 6 mps 759 mmHg 41%
    05:00 +8°C° 0 mm 6 mps 759 mmHg 41%
    06:00 +9°C° 0 mm 6 mps 759 mmHg 42%
    07:00 +8°C° 0.2 mm 7 mps 759 mmHg 45%
    08:00 +8°C° 0.2 mm 7 mps 759 mmHg 47%
    09:00 +8°C° 0.2 mm 7 mps 759 mmHg 50%
    10:00 +9°C° 0 mm 7 mps 758 mmHg 49%
    11:00 +10°C° 0 mm 7 mps 758 mmHg 49%
    12:00 +11°C° 0 mm 7 mps 757 mmHg 49%
    13:00 +11°C° 0 mm 7 mps 757 mmHg 48%
    14:00 +13°C° 0 mm 6 mps 756 mmHg 48%
    15:00 +13°C° 0 mm 6 mps 756 mmHg 47%
    16:00 +11°C° 0 mm 6 mps 756 mmHg 50%
    17:00 +12°C° 0 mm 5 mps 756 mmHg 52%
    18:00 +10°C° 0 mm 5 mps 757 mmHg 54%
    19:00 +10°C° 0 mm 5 mps 757 mmHg 54%
    20:00 +10°C° 0 mm 4 mps 756 mmHg 54%
    21:00 +10°C° 0 mm 4 mps 756 mmHg 54%
    22:00 +10°C° 0 mm 4 mps 756 mmHg 53%
    23:00 +10°C° 0 mm 4 mps 756 mmHg 53%
    Show more